Home > Weather > Saint-Denis > Past weeks

Flag for Réunion (French) Past Weather in Saint-Denis, Réunion (French) — Yesterday and Last 2 Weeks

Now
70 °F

Broken clouds.


Feels Like: 70 °F
Forecast: 66 / 75 °F
Wind: 16 mph from Southeast

Location: Saint-Denis / Gillot

Current Time: Jul 25, 2016 at 6:35:32 AM

Latest Report: Jul 25, 2016 at 6:00 AM


Visibility: N/A

Pressure: 30.18 "Hg

Humidity: 83%

Dew Point: 64 °F

Location of Saint-DenisLocation

Past Weather in Saint-Denis — Graph

°F

Saint-Denis Temperature Yesterday

Maximum temperature yesterday: 77 °F (at 12:30 PM)
Minimum temperature yesterday: 68 °F (at 4:30 AM)
Average temperature yesterday: 72 °F

High & Low Weather Summary for the Past Weeks

 TemperatureHumidityPressure
High79 °F (Jul 10, 12:00 PM)100% (Jul 20, 12:00 AM)30.27 "Hg (Jul 20, 12:00 AM)
Low61 °F (Jul 12, 6:00 AM)47% (Jul 11, 1:00 PM)30.07 "Hg (Jul 10, 2:00 PM)
Average71 °F72%30.17 "Hg
* Reported Jul 10 5:00 AM — Jul 25 5:30 AM, Saint-Denis, Weather by CustomWeather, © 2016

Note: Actual official high and low records may vary slightly from our data, if they occured in-between our weather recording intervals... More about our weather records

Advertising

Saint-Denis Weather History for the Previous 24 Hours

Scroll right to see more
 ConditionsComfort  
Time TempWeatherWind HumidityBarometerVisibility
5:30 AM
Mon, Jul 25
68 °FPassing clouds.12 mph88%30.18 "HgN/A
5:00 AM68 °FPartly cloudy.15 mph88%30.18 "HgN/A
4:30 AM68 °FPartly cloudy.12 mph83%30.18 "HgN/A
4:00 AM68 °FLight rain. Overcast.17 mph83%30.18 "HgN/A
3:30 AM70 °FPartly cloudy.15 mph78%30.18 "HgN/A
3:00 AM70 °FPassing clouds.16 mph73%30.18 "HgN/A
2:30 AM70 °FPassing clouds.18 mph78%30.18 "HgN/A
2:00 AM70 °FMild.14 mph73%30.18 "HgN/A
1:30 AM70 °FPassing clouds.14 mph73%30.18 "HgN/A
1:00 AM70 °FPassing clouds.20 mph73%30.18 "HgN/A
12:30 AM72 °FMild.16 mph61%30.18 "HgN/A
12:00 AM72 °FMild.21 mph65%30.18 "HgN/A
11:30 PM
Sun, Jul 24
70 °FPassing clouds.17 mph69%30.18 "HgN/A
11:00 PM70 °FPassing clouds.20 mph69%30.21 "HgN/A
10:30 PM70 °FMild.13 mph64%30.18 "HgN/A
10:00 PM72 °FClear.17 mph65%30.21 "HgN/A
9:30 PM70 °FClear.20 mph73%30.21 "HgN/A
9:00 PM72 °FClear.18 mph65%30.21 "HgN/A
8:30 PM72 °FPassing clouds.17 mph65%30.18 "HgN/A
8:00 PM72 °FClear.20 mph65%30.18 "HgN/A
7:30 PM72 °FClear.15 mph61%30.18 "HgN/A
7:00 PM70 °FClear.18 mph73%30.15 "HgN/A
6:30 PM70 °FClear.17 mph69%30.15 "HgN/A
6:00 PM72 °FClear.18 mph69%30.15 "HgN/A
5:30 PM73 °FPassing clouds.16 mph65%30.15 "HgN/A
5:00 PM73 °FPassing clouds.20 mph65%30.15 "HgN/A
4:30 PM75 °FPassing clouds.21 mph61%30.15 "HgN/A
4:00 PM75 °FPassing clouds.28 mph57%30.15 "HgN/A
3:30 PM77 °FPassing clouds.23 mph51%30.15 "HgN/A
3:00 PM77 °FPassing clouds.23 mph54%30.15 "HgN/A
2:30 PM77 °FPassing clouds.22 mph51%30.15 "HgN/A
2:00 PM77 °FPassing clouds.21 mph57%30.15 "HgN/A
1:30 PM77 °FPassing clouds.23 mph54%30.18 "HgN/A
1:00 PM77 °FPassing clouds.24 mph61%30.18 "HgN/A
12:30 PM77 °FScattered clouds.22 mph57%30.21 "HgN/A
12:00 PM73 °FScattered clouds.24 mph69%30.21 "HgN/A
11:30 AM73 °FScattered clouds.20 mph69%30.21 "HgN/A
11:00 AM73 °FScattered clouds.18 mph74%30.21 "HgN/A
10:30 AM72 °FScattered showers. Broken clouds.15 mph83%30.24 "HgN/A
10:00 AM72 °FScattered showers. Broken clouds.15 mph78%30.24 "HgN/A
9:30 AM73 °FScattered showers. Broken clouds.15 mph74%30.24 "HgN/A
9:00 AM72 °FScattered showers. Scattered clouds.17 mph78%30.24 "HgN/A
8:30 AM70 °FScattered showers. Broken clouds.15 mph78%30.21 "HgN/A
8:00 AM70 °FScattered showers. Broken clouds.16 mph78%30.21 "HgN/A
7:30 AM70 °FScattered showers. Partly sunny.17 mph83%30.21 "HgN/A
7:00 AM68 °FScattered showers. Partly sunny.14 mph88%30.18 "HgN/A
6:30 AM68 °FPartly sunny.17 mph88%30.18 "HgN/A
6:00 AM68 °FBroken clouds.18 mph88%30.18 "HgN/A
Weather by CustomWeather, © 2016

See weather overviewHow to use our weather pages